TimeCST,TemperatureF,Dew PointF,Humidity,Sea Level PressureIn,VisibilityMPH,Wind Direction,Wind SpeedMPH,Gust SpeedMPH,PrecipitationIn,Events,Conditions,WindDirDegrees,DateUTC
12:15 AM,61.2,61.2,100,29.97,7.0,Calm,Calm,-,N/A,,Overcast,0,2012-12-07 06:15:00
12:35 AM,59.2,59.2,100,29.96,5.0,Calm,Calm,-,N/A,,Scattered Clouds,0,2012-12-07 06:35:00
12:55 AM,59.7,59.7,100,29.96,5.0,Calm,Calm,-,N/A,,Mist,0,2012-12-07 06:55:00
1:15 AM,60.3,60.3,100,29.97,7.0,Calm,Calm,-,N/A,,Unknown,0,2012-12-07 07:15:00
1:35 AM,59.4,59.4,100,29.96,5.0,Calm,Calm,-,N/A,,Overcast,0,2012-12-07 07:35:00
1:55 AM,61.7,61.7,100,29.95,7.0,ESE,3.5,-,N/A,,Overcast,110,2012-12-07 07:55:00
2:15 AM,62.8,62.8,100,29.95,7.0,East,3.5,-,N/A,,Overcast,100,2012-12-07 08:15:00
2:35 AM,63.0,63.0,100,29.96,7.0,Calm,Calm,-,N/A,,Overcast,0,2012-12-07 08:35:00
2:55 AM,63.1,63.1,100,29.96,7.0,Calm,Calm,-,N/A,,Overcast,0,2012-12-07 08:55:00
3:15 AM,63.1,63.1,100,29.95,7.0,Calm,Calm,-,N/A,,Overcast,0,2012-12-07 09:15:00
3:35 AM,63.0,63.0,100,29.95,5.0,Calm,Calm,-,N/A,,Overcast,0,2012-12-07 09:35:00
3:55 AM,63.0,63.0,100,29.95,5.0,Calm,Calm,-,N/A,,Overcast,0,2012-12-07 09:55:00
4:15 AM,62.8,62.8,100,29.95,5.0,Calm,Calm,-,N/A,,Overcast,0,2012-12-07 10:15:00
4:35 AM,63.3,63.3,100,29.95,3.0,Calm,Calm,-,N/A,,Overcast,0,2012-12-07 10:35:00
4:55 AM,63.5,63.5,100,29.95,4.0,Calm,Calm,-,N/A,,Overcast,0,2012-12-07 10:55:00
5:15 AM,63.5,63.5,100,29.96,4.0,Calm,Calm,-,N/A,,Overcast,0,2012-12-07 11:15:00
5:35 AM,63.1,63.1,100,29.96,3.0,Calm,Calm,-,N/A,,Overcast,0,2012-12-07 11:35:00
5:55 AM,63.3,63.3,100,29.97,2.0,Calm,Calm,-,N/A,,Overcast,0,2012-12-07 11:55:00
6:15 AM,63.0,63.0,100,29.98,0.8,Calm,Calm,-,N/A,,Overcast,0,2012-12-07 12:15:00
6:35 AM,63.1,63.1,100,29.98,0.8,Calm,Calm,-,N/A,,Overcast,0,2012-12-07 12:35:00
6:55 AM,63.3,63.3,100,29.98,0.8,Calm,Calm,-,N/A,,Overcast,0,2012-12-07 12:55:00
7:15 AM,63.5,63.5,100,29.99,0.2,Calm,Calm,-,N/A,Fog,Fog,0,2012-12-07 13:15:00
7:35 AM,63.5,63.5,100,29.99,0.2,Calm,Calm,-,N/A,Fog,Fog,0,2012-12-07 13:35:00
7:55 AM,63.5,63.5,100,29.99,0.2,Calm,Calm,-,N/A,Fog,Fog,0,2012-12-07 13:55:00
8:15 AM,63.7,63.7,100,30.00,0.2,Calm,Calm,-,N/A,Fog,Fog,0,2012-12-07 14:15:00
8:35 AM,63.9,63.9,100,29.99,0.2,Calm,Calm,-,N/A,Fog,Fog,0,2012-12-07 14:35:00
8:55 AM,64.4,64.4,100,30.00,0.8,Calm,Calm,-,N/A,,Overcast,0,2012-12-07 14:55:00
9:15 AM,64.6,64.6,100,30.00,5.0,Calm,Calm,-,N/A,,Overcast,0,2012-12-07 15:15:00
9:35 AM,65.3,65.3,100,30.00,7.0,Calm,Calm,-,N/A,,Overcast,0,2012-12-07 15:35:00
9:55 AM,66.6,66.6,100,30.00,10.0,Calm,Calm,-,N/A,,Overcast,0,2012-12-07 15:55:00
10:15 AM,67.6,67.6,100,30.00,7.0,Calm,Calm,-,N/A,,Overcast,0,2012-12-07 16:15:00
10:35 AM,68.4,68.4,100,29.99,10.0,Calm,Calm,-,N/A,,Overcast,0,2012-12-07 16:35:00
10:55 AM,70.5,63.1,77,29.99,10.0,Calm,Calm,-,N/A,,Mostly Cloudy,0,2012-12-07 16:55:00
11:15 AM,70.9,61.3,72,29.98,10.0,South,3.5,-,N/A,,Mostly Cloudy,190,2012-12-07 17:15:00
11:35 AM,70.5,60.8,71,29.97,10.0,Calm,Calm,-,N/A,,Unknown,0,2012-12-07 17:35:00
11:55 AM,71.6,60.4,68,29.96,10.0,South,4.6,-,N/A,,Unknown,180,2012-12-07 17:55:00
12:15 PM,71.6,60.4,68,29.95,10.0,SSW,5.8,-,N/A,,Unknown,210,2012-12-07 18:15:00
12:35 PM,71.8,60.4,67,29.94,10.0,South,4.6,-,N/A,,Unknown,180,2012-12-07 18:35:00
12:55 PM,71.6,60.3,67,29.94,10.0,SSE,4.6,-,N/A,,Unknown,160,2012-12-07 18:55:00
1:15 PM,71.8,60.6,68,29.93,10.0,SW,3.5,-,N/A,,Unknown,230,2012-12-07 19:15:00
1:35 PM,71.8,60.3,67,29.92,10.0,Calm,Calm,-,N/A,,Unknown,0,2012-12-07 19:35:00
1:55 PM,72.1,60.8,67,29.91,10.0,SSE,4.6,-,N/A,,Unknown,160,2012-12-07 19:55:00
2:15 PM,72.0,61.0,68,29.91,10.0,Calm,Calm,-,N/A,,Unknown,0,2012-12-07 20:15:00
2:35 PM,72.5,61.2,67,29.91,10.0,SE,3.5,-,N/A,,Unknown,130,2012-12-07 20:35:00
2:55 PM,72.1,60.8,67,29.91,10.0,ESE,4.6,-,N/A,,Unknown,120,2012-12-07 20:55:00
3:15 PM,71.6,60.4,68,29.91,10.0,SSE,4.6,-,N/A,,Unknown,160,2012-12-07 21:15:00
3:35 PM,71.6,60.4,68,29.91,10.0,SSE,3.5,-,N/A,,Unknown,150,2012-12-07 21:35:00
3:55 PM,71.6,60.3,67,29.91,10.0,SE,3.5,-,N/A,,Scattered Clouds,140,2012-12-07 21:55:00
4:15 PM,70.9,60.1,69,29.92,10.0,Calm,Calm,-,N/A,,Mostly Cloudy,0,2012-12-07 22:15:00
4:35 PM,70.2,60.8,72,29.92,10.0,Calm,Calm,-,N/A,,Overcast,0,2012-12-07 22:35:00
4:55 PM,68.9,61.0,76,29.92,10.0,Calm,Calm,-,N/A,,Mostly Cloudy,0,2012-12-07 22:55:00
5:15 PM,68.9,61.0,76,29.92,10.0,Calm,Calm,-,N/A,,Overcast,0,2012-12-07 23:15:00
5:35 PM,68.4,61.3,78,29.92,10.0,Calm,Calm,-,N/A,,Overcast,0,2012-12-07 23:35:00
5:55 PM,68.5,61.3,78,29.92,10.0,SSE,3.5,-,N/A,,Overcast,160,2012-12-07 23:55:00
6:15 PM,68.9,61.7,78,29.93,10.0,SSE,3.5,-,N/A,,Overcast,160,2012-12-08 00:15:00
6:35 PM,68.9,62.1,79,29.94,10.0,SSE,3.5,-,N/A,,Overcast,150,2012-12-08 00:35:00
6:55 PM,68.5,62.6,81,29.94,10.0,South,3.5,-,N/A,,Overcast,170,2012-12-08 00:55:00
7:15 PM,68.4,62.8,82,29.95,10.0,SSE,4.6,-,N/A,,Overcast,160,2012-12-08 01:15:00
7:35 PM,68.0,63.1,84,29.95,10.0,Calm,Calm,-,N/A,,Overcast,0,2012-12-08 01:35:00
8:35 PM,67.5,67.5,100,29.96,10.0,Calm,Calm,-,N/A,,Overcast,0,2012-12-08 02:35:00
8:55 PM,67.1,67.1,100,29.95,10.0,Calm,Calm,-,N/A,,Mostly Cloudy,0,2012-12-08 02:55:00
9:15 PM,66.6,66.6,100,29.95,10.0,Calm,Calm,-,N/A,,Mostly Cloudy,0,2012-12-08 03:15:00
9:35 PM,66.6,66.6,100,29.95,10.0,Calm,Calm,-,N/A,,Mostly Cloudy,0,2012-12-08 03:35:00
9:55 PM,63.0,63.0,100,29.95,7.0,Calm,Calm,-,N/A,,Overcast,0,2012-12-08 03:55:00
10:15 PM,64.4,64.4,100,29.95,7.0,Calm,Calm,-,N/A,,Overcast,0,2012-12-08 04:15:00
10:35 PM,64.0,64.0,100,29.96,5.0,Calm,Calm,-,N/A,,Overcast,0,2012-12-08 04:35:00
10:55 PM,64.8,64.8,100,29.96,7.0,Calm,Calm,-,N/A,,Overcast,0,2012-12-08 04:55:00
11:15 PM,65.3,65.3,100,29.96,7.0,Calm,Calm,-,N/A,,Overcast,0,2012-12-08 05:15:00
11:35 PM,65.5,65.5,100,29.95,7.0,Calm,Calm,-,N/A,,Overcast,0,2012-12-08 05:35:00
11:55 PM,65.8,65.8,100,29.95,7.0,SE,3.5,-,N/A,,Overcast,130,2012-12-08 05:55:00